Mt. Clemens, MI

5:23 PM EDT on September 26, 2017 (GMT -0400)
Selfridge Angb

Weather History for KMTC - June, 2013

Change the Weather History Date:

Sunday, June 16, 2013

  Actual Average Record
Temperature  
Mean Temperature 72 °F -  
Max Temperature 80 °F 76 °F 95 °F (1952)
Min Temperature 64 °F 56 °F 41 °F (1964)
Cooling Degree Days 7    
Growing Degree Days 22 (Base 50)    
Moisture  
Dew Point 63 °F    
Average Humidity 83    
Maximum Humidity 100    
Minimum Humidity 44    
Precipitation  
Precipitation 0.11 in - - ()
Sea Level Pressure  
Sea Level Pressure 29.83 in    
Wind  
Wind Speed 8 mph (WSW)    
Max Wind Speed 16 mph    
Max Gust Speed 23 mph    
Visibility 9 miles    
Events Rain    
Averages and records for this station are not official NWS values.
T = Trace of Precipitation, MM = Missing Value Source: NWS Daily Summary

Daily Weather History Graph

Daily Weather History Graph

Search for Another Location

Airport or City:

Trip Planner

Search our weather history database for the weather conditions in past years. The results will help you decide how hot, cold, wet, or windy it might be!

Date:

Astronomy

Jun. 16, 2013 Rise Set
Actual Time 5:53 AM EDT 9:11 PM EDT
Civil Twilight 5:18 AM EDT 9:46 PM EDT
Nautical Twilight 4:32 AM EDT 10:31 PM EDT
Astronomical Twilight 3:37 AM EDT 11:27 PM EDT
Moon 1:37 PM EDT (6/16) 1:06 AM EDT (6/16)
Length of Visible Light 16h 28m
Length of Day
15h 18m
Waxing Crescent, 49% of the Moon is Illuminated
Jun 16
Waxing Crescent
Jun 16
First Quarter
Jun 23
Full
Jun 30
Last Quarter
Jul 8
New

Hourly Weather History & Observations

Time (EDT) Temp. Heat Index Dew Point Humidity Pressure Visibility Wind Dir Wind Speed Gust Speed Precip Events Conditions
12:58 AM 65.3 °F - 61.7 °F 88% 29.91 in 10.0 mi South 5.8 mph - N/A   Mostly Cloudy
1:58 AM 64.6 °F - 61.5 °F 90% 29.88 in 10.0 mi South 8.1 mph - N/A   Clear
2:58 AM 65.7 °F - 63.9 °F 94% 29.86 in 10.0 mi South 5.8 mph - N/A   Overcast
3:02 AM 66.2 °F - 64.4 °F 94% 29.85 in 10.0 mi South 6.9 mph - N/A Rain Light Rain
3:11 AM 66.2 °F - 64.4 °F 94% 29.84 in 10.0 mi South 5.8 mph - N/A   Overcast
3:58 AM 65.7 °F - 63.0 °F 91% 29.83 in 10.0 mi SSW 5.8 mph - 0.00 in   Overcast
3:59 AM 66.2 °F - 62.6 °F 88% 29.84 in 10.0 mi SSW 5.8 mph - N/A Rain Light Rain
4:04 AM 66.2 °F - 62.6 °F 88% 29.83 in 9.0 mi SSW 5.8 mph - N/A Rain Light Rain
4:24 AM 66.2 °F - 62.6 °F 88% 29.82 in 10.0 mi SSW 4.6 mph - N/A Rain Light Rain
4:29 AM 64.4 °F - 64.4 °F 100% 29.82 in 9.0 mi SSW 4.6 mph - N/A Rain Light Rain
4:34 AM 64.4 °F - 64.4 °F 100% 29.81 in 6.0 mi South 4.6 mph - N/A Rain Light Rain
4:39 AM 64.4 °F - 64.4 °F 100% 29.82 in 5.0 mi SSW 5.8 mph - N/A Rain Rain
4:54 AM 64.4 °F - 64.4 °F 100% 29.83 in 5.0 mi SW 5.8 mph - N/A Rain Light Rain
4:58 AM 64.9 °F - 64.6 °F 99% 29.83 in 6.0 mi SSW 5.8 mph - 0.11 in Rain Light Rain
5:08 AM 64.4 °F - 64.4 °F 100% 29.81 in 5.0 mi SSW 11.5 mph - N/A Rain Light Rain
5:18 AM 66.2 °F - 64.4 °F 94% 29.78 in 5.0 mi South 10.4 mph - N/A Rain Rain
5:33 AM 64.4 °F - 64.4 °F 100% 29.75 in 8.0 mi SSW 11.5 mph - N/A Rain Light Rain
5:36 AM 64.4 °F - 64.4 °F 100% 29.76 in 8.0 mi SSW 10.4 mph - N/A   Mostly Cloudy
5:55 AM 65.5 °F - 65.1 °F 99% 29.78 in 5.0 mi SW 10.4 mph - N/A   Overcast
6:24 AM 66.2 °F - 66.2 °F 100% 29.76 in 4.0 mi WSW 12.7 mph - N/A   Overcast
6:55 AM 66.0 °F - 65.7 °F 99% 29.78 in 4.0 mi SW 12.7 mph - N/A   Overcast
7:15 AM 66.2 °F - 66.2 °F 100% 29.76 in 4.0 mi WSW 13.8 mph - N/A   Overcast
7:27 AM 66.2 °F - 66.2 °F 100% 29.77 in 4.0 mi WSW 12.7 mph - N/A   Overcast
7:55 AM 67.3 °F - 66.4 °F 97% 29.78 in 6.0 mi WSW 11.5 mph - N/A   Overcast
8:55 AM 68.5 °F - 64.9 °F 88% 29.80 in 7.0 mi West 10.4 mph - N/A   Overcast
9:23 AM 68.0 °F - 64.4 °F 88% 29.80 in 7.0 mi West 11.5 mph 19.6 mph N/A   Overcast
9:29 AM 68.0 °F - 64.4 °F 88% 29.81 in 7.0 mi WNW 10.4 mph - N/A   Overcast
9:55 AM 68.2 °F - 63.3 °F 84% 29.83 in 7.0 mi WNW 12.7 mph - N/A   Overcast
10:21 AM 68.0 °F - 62.6 °F 83% 29.82 in 10.0 mi WNW 11.5 mph 20.7 mph N/A   Overcast
10:55 AM 69.6 °F - 63.1 °F 80% 29.84 in 10.0 mi WNW 13.8 mph - N/A   Overcast
11:55 AM 71.1 °F - 63.0 °F 75% 29.86 in 12.0 mi West 10.4 mph 18.4 mph N/A   Mostly Cloudy
12:16 PM 71.6 °F - 62.6 °F 73% 29.83 in 12.0 mi WNW 11.5 mph - N/A   Mostly Cloudy
12:55 PM 75.7 °F - 63.9 °F 66% 29.86 in 12.0 mi West 8.1 mph - N/A   Mostly Cloudy
1:55 PM 75.9 °F - 63.3 °F 65% 29.86 in 12.0 mi NW 10.4 mph - N/A   Mostly Cloudy
2:55 PM 77.7 °F - 63.3 °F 61% 29.85 in 12.0 mi West 9.2 mph - N/A   Scattered Clouds
3:55 PM 79.2 °F - 64.2 °F 60% 29.86 in 12.0 mi West 9.2 mph - N/A   Scattered Clouds
4:55 PM 80.2 °F 81.8 °F 63.9 °F 57% 29.85 in 12.0 mi West 13.8 mph - N/A   Scattered Clouds
5:55 PM 80.6 °F 81.5 °F 61.2 °F 51% 29.84 in 12.0 mi West 10.4 mph - N/A   Partly Cloudy
6:55 PM 80.8 °F 81.5 °F 60.6 °F 50% 29.83 in 12.0 mi West 16.1 mph 23.0 mph N/A   Partly Cloudy
7:58 PM 79.5 °F - 55.9 °F 44% 29.84 in 10.0 mi WNW 10.4 mph 19.6 mph N/A   Partly Cloudy
8:58 PM 76.5 °F - 54.9 °F 47% 29.85 in 10.0 mi West 9.2 mph - N/A   Clear
9:58 PM 73.0 °F - 54.9 °F 53% 29.86 in 10.0 mi West 8.1 mph - N/A   Clear
10:58 PM 71.4 °F - 54.1 °F 54% 29.88 in 10.0 mi West 4.6 mph - N/A   Clear
11:58 PM 68.7 °F - 54.7 °F 61% 29.88 in 10.0 mi West 5.8 mph - N/A   Clear